Погода в Палатове

Россия / Белгородская область     50°24′47″N   38°09′32″E
темп.,
°C
ветер,
м/с
пор.,
м/с
влажн.,
%
обл.,
%
осадки,
мм/ч
давл.,
гПа
погр.,
м
16 апреля, пт
пт1600:00+8ююз22885 0.0 101539
03:00+7ююв34925 0.0 101584
06:00+6ююв36925 0.0 1016160
09:00+10ю576821 0.0 1017943
12:00+13ю574960 0.1 10161845
15:00+13юз574698 0.1 10171534
18:00+12ююз46545 0.0 1017988
21:00+8ююв116888 0.0 101710
17 апреля, сб
сб1700:00+8ю1170100 0.0 101810
03:00+7ю1286100 1.3 1018182
06:00+7в1292100 1.3 101890
09:00+10ююз456310 1.9 10181163
12:00+12ююз564726 0.1 10181829
15:00+10юз775543 0.1 10191254
18:00+9юз565991 0.0 10191158
21:00+8ююз3670100 0.1 1020598
18 апреля, вс
вс1800:00+7юз3777100 0.1 1020573
03:00+7юз248094 0.1 1020326
06:00+5ю238796 0.1 102089
09:00+9ю3470100 0.1 1020497
12:00+12ю4653100 0.2 10191741
15:00+13ююв3549100 0.3 10191573
18:00+13юв355299 0.0 1018406
21:00+9вюв41064100 0.0 1019220
19 апреля, пн
пн1900:00+9вюв3866100 0.0 1018261
03:00+9вюв4116699 0.0 1017284
06:00+9юв5971100 0.0 1017263
09:00+10ююв567498 0.1 1018653
12:00+13юв5663100 0.4 10171269
15:00+12юв776693 0.8 10161181
18:00+10вюв597587 0.0 1016801
21:00+9в4883100 0.0 1015633
20 апреля, вт
вт2000:00+9в4890100 0.0 1013593
03:00+9в5994100 0.0 1011509
06:00+9в71394100 0.1 1007589
09:00+10в91795100 5.5 1003759
12:00+12вюв102093100 8.3 9991381
15:00+14ююв10168796 8.8 998986
18:00+15ю91567100 0.9 9991223
21:00+10ю10177946 0.9 10001184